Location: Bennemühlen
(52.5740°N, 9.7135°E)
Time: 16:03:28
(UTC+00:00)

A-11 Canister half - All Passes

Search period start: 10 February 2026 00:00
Search period end: 20 February 2026 00:00
Orbit: 1526 x 1682 km, 47.3° (Epoch: 10 February)

Date Brightness Start Highest point End Pass type
(mag) Time Alt. Az. Time Alt. Az. Time Alt. Az.
10 Feb - 00:32:49 10° W 00:40:27 29° SW 00:48:15 10° SSE night (unlit)
10 Feb - 15:58:47 10° SSE 16:03:50 16° SE 16:08:52 10° E daylight
10 Feb - 17:58:15 10° SW 18:06:44 42° SSE 18:15:15 10° E visible
10 Feb - 20:01:37 10° WSW 20:10:44 63° S 20:19:58 10° E visible
10 Feb - 22:06:02 10° W 22:15:03 56° SSW 22:24:15 10° ESE visible
11 Feb - 00:10:58 10° W 00:18:42 30° SW 00:26:36 10° SSE night (unlit)
11 Feb - 15:37:26 10° SSE 15:42:07 15° SE 15:46:47 10° E daylight
11 Feb - 17:36:33 10° SW 17:44:58 40° SSE 17:53:25 10° E visible
11 Feb - 19:39:49 10° WSW 19:48:56 63° S 19:58:09 10° E visible
11 Feb - 21:44:13 10° W 21:53:15 57° SSW 22:02:27 10° ESE visible
11 Feb - 23:49:06 10° W 23:56:57 31° SW 00:04:56 10° SSE visible
12 Feb - 15:16:08 10° SSE 15:20:25 14° SE 15:24:40 10° E daylight
12 Feb - 17:14:50 10° SSW 17:23:12 39° SSE 17:31:34 10° E visible
12 Feb - 19:18:01 10° WSW 19:27:08 62° S 19:36:19 10° E visible
12 Feb - 21:22:24 10° W 21:31:27 58° SSW 21:40:39 10° ESE visible
12 Feb - 23:27:15 10° W 23:35:11 32° SW 23:43:17 10° SSE visible
13 Feb - 14:54:55 10° SSE 14:58:42 13° SE 15:02:29 10° E daylight
13 Feb - 16:53:09 10° SSW 17:01:27 38° SSE 17:09:44 10° E visible
13 Feb - 18:56:14 10° WSW 19:05:20 62° S 19:14:30 10° E visible
13 Feb - 21:00:36 10° W 21:09:39 59° SSW 21:18:51 10° ESE visible
13 Feb - 23:05:24 10° W 23:13:25 34° SW 23:21:36 10° SSE visible
14 Feb - 01:15:18 10° WSW 01:16:00 10° WSW 01:16:43 10° SW night (unlit)
14 Feb - 14:33:47 10° SE 14:37:00 12° SE 14:40:12 10° ESE daylight
14 Feb - 16:31:28 10° SSW 16:39:41 37° SE 16:47:53 10° E daylight
14 Feb - 18:34:26 10° WSW 18:43:32 61° S 18:52:40 10° E visible
14 Feb - 20:38:48 10° W 20:47:51 60° SSW 20:57:03 10° ESE visible
14 Feb - 22:43:33 10° W 22:51:39 35° SW 22:59:54 10° SSE visible
15 Feb - 00:52:05 10° WSW 00:54:18 11° WSW 00:56:32 10° SW night (unlit)
15 Feb - 14:12:50 10° SE 14:15:18 11° SE 14:17:46 10° ESE daylight
15 Feb - 16:09:47 10° SSW 16:17:56 35° SE 16:26:02 10° E daylight
15 Feb - 18:12:39 10° WSW 18:21:44 60° SSE 18:30:51 10° E visible
15 Feb - 20:16:58 10° W 20:26:03 61° SSW 20:35:15 10° ESE visible
15 Feb - 22:21:43 10° W 22:29:54 36° SW 22:38:13 10° SSE visible
16 Feb - 00:29:35 10° WSW 00:32:35 12° SW 00:35:38 10° SW night (unlit)
16 Feb - 13:52:17 10° SE 13:53:36 10° ESE 13:54:56 10° ESE daylight
16 Feb - 15:48:06 10° SSW 15:56:10 34° SE 16:04:11 10° E daylight
16 Feb - 17:50:52 10° WSW 17:59:56 60° SSE 18:09:01 10° E visible
16 Feb - 19:55:10 10° W 20:04:15 61° S 20:13:27 10° ESE visible
16 Feb - 21:59:53 10° W 22:08:08 37° SW 22:16:31 10° SSE visible
17 Feb - 00:07:16 10° WSW 00:10:53 13° SW 00:14:33 10° SSW night (unlit)
17 Feb - 15:26:26 10° SSW 15:34:25 33° SE 15:42:20 10° E daylight
17 Feb - 17:29:04 10° WSW 17:38:09 59° SSE 17:47:12 10° E visible
17 Feb - 19:33:21 10° W 19:42:27 62° S 19:51:38 10° ESE visible
17 Feb - 21:38:03 10° W 21:46:22 39° SSW 21:54:49 10° SSE visible
17 Feb - 23:45:04 10° W 23:49:11 14° SW 23:53:20 10° SSW visible
18 Feb - 15:04:47 10° SSW 15:12:40 32° SE 15:20:28 10° E daylight
18 Feb - 17:07:17 10° WSW 17:16:21 58° SSE 17:25:23 10° E visible
18 Feb - 19:11:32 10° W 19:20:39 63° S 19:29:49 10° ESE visible
18 Feb - 21:16:13 10° W 21:24:36 40° SSW 21:33:06 10° SSE visible
18 Feb - 23:22:56 10° W 23:27:28 15° SW 23:32:03 10° SSW visible
19 Feb - 14:43:07 10° SSW 14:50:55 30° SE 14:58:37 10° E daylight
19 Feb - 16:45:30 10° WSW 16:54:33 57° SSE 17:03:34 10° E daylight
19 Feb - 18:49:43 10° W 18:58:50 63° S 19:08:01 10° ESE visible
19 Feb - 20:54:23 10° W 21:02:50 41° SSW 21:11:23 10° SE visible
19 Feb - 23:00:51 10° W 23:05:45 16° SW 23:10:43 10° SSW visible
